TimeEST,TemperatureF,Dew PointF,Humidity,Sea Level PressureIn,VisibilityMPH,Wind Direction,Wind SpeedMPH,Gust SpeedMPH,PrecipitationIn,Events,Conditions,WindDirDegrees,DateUTC
12:53 AM,28.0,21.9,78,30.17,10.0,NNW,5.8,-,N/A,,Clear,330,2012-12-20 05:53:00
1:53 AM,28.0,21.0,75,30.18,10.0,NNW,4.6,-,N/A,,Clear,330,2012-12-20 06:53:00
2:53 AM,25.0,19.9,81,30.18,10.0,NNE,4.6,-,N/A,,Clear,20,2012-12-20 07:53:00
3:53 AM,26.1,19.9,78,30.18,10.0,NNW,3.5,-,N/A,,Clear,340,2012-12-20 08:53:00
4:53 AM,26.1,21.0,81,30.18,10.0,Calm,Calm,-,N/A,,Clear,0,2012-12-20 09:53:00
5:53 AM,25.0,21.0,85,30.19,10.0,NW,3.5,-,N/A,,Clear,310,2012-12-20 10:53:00
6:53 AM,24.8,19.4,80,30.13,10.0,Calm,Calm,-,N/A,,Clear,0,2012-12-20 11:53:00
7:53 AM,24.1,19.9,84,30.19,10.0,East,5.8,-,N/A,,Clear,80,2012-12-20 12:53:00
8:53 AM,26.1,21.0,81,30.18,10.0,East,8.1,-,N/A,,Clear,90,2012-12-20 13:53:00
9:53 AM,27.0,19.9,75,30.16,10.0,ESE,9.2,-,N/A,,Clear,120,2012-12-20 14:53:00
10:53 AM,28.9,19.9,69,30.12,10.0,East,11.5,-,0.01,,Clear,100,2012-12-20 15:53:00
11:53 AM,30.9,19.9,64,30.05,10.0,ESE,11.5,-,N/A,,Clear,110,2012-12-20 16:53:00
12:53 PM,32.0,21.0,64,30.02,10.0,ESE,6.9,-,N/A,,Clear,120,2012-12-20 17:53:00
1:53 PM,33.1,21.0,61,30.01,10.0,South,6.9,-,N/A,,Clear,170,2012-12-20 18:53:00
2:53 PM,34.0,21.0,59,29.96,10.0,SE,12.7,21.9,N/A,,Clear,140,2012-12-20 19:53:00
3:53 PM,34.0,19.9,56,29.91,10.0,SE,13.8,21.9,N/A,,Clear,140,2012-12-20 20:53:00
4:53 PM,34.0,21.0,59,29.90,10.0,SE,15.0,21.9,N/A,,Clear,140,2012-12-20 21:53:00
5:53 PM,33.1,21.0,61,29.91,10.0,SSE,16.1,24.2,N/A,,Mostly Cloudy,150,2012-12-20 22:53:00
6:53 PM,32.0,24.1,73,29.84,10.0,SE,24.2,31.1,0.00,,Overcast,140,2012-12-20 23:53:00
7:46 PM,32.0,24.8,75,29.80,10.0,SSE,12.7,26.5,0.00,,Small Hail,160,2012-12-21 00:46:00
7:53 PM,32.0,25.0,75,29.84,10.0,SSE,17.3,25.3,0.00,Snow,Light Snow,150,2012-12-21 00:53:00
8:15 PM,30.2,26.6,86,29.77,4.0,SSE,21.9,33.4,0.00,Snow,Light Snow,150,2012-12-21 01:15:00
8:22 PM,30.2,28.4,93,29.76,1.8,SSE,21.9,28.8,0.00,Snow,Light Snow,150,2012-12-21 01:22:00
8:29 PM,30.2,28.4,93,29.75,2.0,SE,23.0,29.9,0.00,Snow,Light Snow,140,2012-12-21 01:29:00
8:38 PM,30.2,28.4,93,29.74,1.8,SE,25.3,34.5,0.00,Snow,Light Snow,140,2012-12-21 01:38:00
8:43 PM,30.2,28.4,93,29.74,3.0,SSE,21.9,34.5,0.00,Snow,Light Snow,150,2012-12-21 01:43:00
8:53 PM,30.9,28.9,92,29.78,5.0,SSE,23.0,33.4,0.00,Snow,Light Snow,150,2012-12-21 01:53:00
9:53 PM,33.1,30.0,89,29.71,9.0,SSE,20.7,32.2,0.01,Rain,Light Rain,150,2012-12-21 02:53:00
10:13 PM,33.8,30.2,87,29.64,10.0,SSE,19.6,35.7,0.00,,Small Hail,150,2012-12-21 03:13:00
10:53 PM,34.0,30.9,89,29.67,9.0,SSE,21.9,32.2,0.00,,Small Hail,150,2012-12-21 03:53:00
11:11 PM,33.8,30.2,87,29.60,10.0,SSE,23.0,36.8,0.00,Rain,Light Rain,150,2012-12-21 04:11:00
11:53 PM,34.0,32.0,92,29.57,10.0,SSE,23.0,31.1,0.00,Rain,Light Rain,150,2012-12-21 04:53:00